Tillbaka till svenska Fidonet
English   Information   Debug  
FILM   0/18
FNEWS_PUBLISH   4851
FN_SYSOP   42078
FN_SYSOP_OLD1   71952
FTP_FIDO   0/2
FTSC_PUBLIC   0/13916
FUNNY   0/4886
GENEALOGY.EUR   0/71
GET_INFO   105
GOLDED   0/408
HAM   0/16594
HOLYSMOKE   0/6791
HOT_SITES   0/1
HTMLEDIT   0/71
HUB203   466
HUB_100   264
HUB_400   39
HUMOR   0/29
IC   0/2851
INTERNET   0/424
INTERUSER   0/3
IP_CONNECT   719
JAMNNTPD   0/233
JAMTLAND   0/47
KATTY_KORNER   0/41
LAN   0/16
LINUX-USER   0/19
LINUXHELP   0/1155
LINUX   0/22279
LINUX_BBS   0/957
mail   18.68
mail_fore_ok   249
MENSA   0/341
MODERATOR   0/102
MONTE   0/992
MOSCOW_OKLAHOMA   0/1245
MUFFIN   0/783
MUSIC   0/321
N203_STAT   938
N203_SYSCHAT   313
NET203   321
NET204   69
NET_DEV   0/10
NORD.ADMIN   0/101
NORD.CHAT   0/2572
NORD.FIDONET   189
NORD.HARDWARE   0/28
NORD.KULTUR   0/114
NORD.PROG   0/32
NORD.SOFTWARE   0/88
NORD.TEKNIK   0/58
NORD   0/453
OCCULT_CHAT   0/93
OS2BBS   0/787
OS2DOSBBS   0/580
OS2HW   0/42
OS2INET   0/37
OS2LAN   0/134
OS2PROG   0/36
OS2REXX   0/113
OS2USER-L   207
OS2   0/4823
OSDEBATE   0/18996
PASCAL   0/490
PERL   0/457
PHP   0/45
POINTS   0/405
POLITICS   13226/29554
POL_INC   0/14731
PSION   103
R20_ADMIN   1133
R20_AMATORRADIO   0/2
R20_BEST_OF_FIDONET   16
R20_CHAT   0/896
R20_DEPP   0/3
R20_DEV   400
R20_ECHO2   1762
R20_ECHOPRES   0/35
R20_ESTAT   0/719
R20_FIDONETPROG...
...RAM.MYPOINT
  0/2
R20_FIDONETPROGRAM   0/22
R20_FIDONET   0/248
R20_FILEFIND   0/24
R20_FILEFOUND   0/22
R20_HIFI   0/3
R20_INFO2   3654
R20_INTERNET   0/12940
R20_INTRESSE   0/60
R20_INTR_KOM   0/99
R20_KANDIDAT.CHAT   42
R20_KANDIDAT   28
R20_KOM_DEV   112
R20_KONTROLL   0/13360
R20_KORSET   0/18
R20_LOKALTRAFIK   0/24
R20_MODERATOR   0/1852
R20_NC   76
R20_NET200   245
R20_NETWORK.OTH...
...ERNETS
  0/13
R20_OPERATIVSYS...
...TEM.LINUX
  0/44
R20_PROGRAMVAROR   0/1
R20_REC2NEC   534
R20_SFOSM   0/341
R20_SF   0/108
R20_SPRAK.ENGLISH   0/1
R20_SQUISH   107
R20_TEST   2
R20_WORST_OF_FIDONET   20
RAR   0/9
RA_MULTI   106
RA_UTIL   0/162
REGCON.EUR   0/2067
REGCON   0/13
SCIENCE   0/1206
SF   0/239
SHAREWARE_SUPPORT   0/5146
SHAREWRE   0/14
SIMPSONS   0/169
STATS_OLD1   0/2539.065
STATS_OLD2   0/2530
STATS_OLD3   0/2395.095
STATS_OLD4   0/1692.25
SURVIVOR   0/495
SYSOPS_CORNER   0/3
SYSOP   0/84
TAGLINES   0/112
TEAMOS2   0/4530
TECH   0/2617
TEST.444   0/105
TRAPDOOR   0/19
TREK   0/755
TUB   0/290
UFO   0/40
UNIX   0/1316
USA_EURLINK   0/102
USR_MODEMS   0/1
VATICAN   0/2740
VIETNAM_VETS   0/14
VIRUS   0/378
VIRUS_INFO   0/201
VISUAL_BASIC   0/473
WHITEHOUSE   0/5187
WIN2000   0/101
WIN32   0/30
WIN95   0/4291
WIN95_OLD1   0/70272
WINDOWS   0/1517
WWB_SYSOP   0/419
WWB_TECH   0/810
ZCC-PUBLIC   0/1
ZEC   4

 
4DOS   0/134
ABORTION   0/7
ALASKA_CHAT   0/506
ALLFIX_FILE   0/1313
ALLFIX_FILE_OLD1   0/7997
ALT_DOS   0/152
AMATEUR_RADIO   0/1039
AMIGASALE   0/14
AMIGA   0/331
AMIGA_INT   0/1
AMIGA_PROG   0/20
AMIGA_SYSOP   0/26
ANIME   0/15
ARGUS   0/924
ASCII_ART   0/340
ASIAN_LINK   0/651
ASTRONOMY   0/417
AUDIO   0/92
AUTOMOBILE_RACING   0/105
BABYLON5   0/17862
BAG   135
BATPOWER   0/361
BBBS.ENGLISH   0/382
BBSLAW   0/109
BBS_ADS   0/5290
BBS_INTERNET   0/507
BIBLE   0/3563
BINKD   0/1119
BINKLEY   0/215
BLUEWAVE   0/2173
CABLE_MODEMS   0/25
CBM   0/46
CDRECORD   0/66
CDROM   0/20
CLASSIC_COMPUTER   0/378
COMICS   0/15
CONSPRCY   0/899
COOKING   40756
COOKING_OLD1   21766/24719
COOKING_OLD2   0/40862
COOKING_OLD3   0/37489
COOKING_OLD4   0/35496
COOKING_OLD5   9370
C_ECHO   0/189
C_PLUSPLUS   0/31
DIRTY_DOZEN   0/201
DOORGAMES   0/2234
DOS_INTERNET   0/196
duplikat   6102
ECHOLIST   0/18295
EC_SUPPORT   0/318
ELECTRONICS   0/359
ELEKTRONIK.GER   1534
ENET.LINGUISTIC   0/13
ENET.POLITICS   0/4
ENET.SOFT   0/11701
ENET.SYSOP   34240
ENET.TALKS   0/32
ENGLISH_TUTOR   0/2000
EVOLUTION   0/1335
FDECHO   0/217
FDN_ANNOUNCE   0/7068
FIDONEWS   24878
FIDONEWS_OLD1   0/49742
FIDONEWS_OLD2   0/35949
FIDONEWS_OLD3   0/30874
FIDONEWS_OLD4   0/37224
FIDO_SYSOP   12919
FIDO_UTIL   0/180
FILEFIND   0/209
FILEGATE   0/212
Möte HAM, 16594 texter
 lista första sista föregående nästa
Text 2113, 801 rader
Skriven 2008-02-15 00:00:42 av Amsat List (1:323/120.0)
Ärende: [keps]  orb08045.amsa
=============================
[keps]  orb08045.amsa

Return-Path: <keps-bounces@amsat.org>
X-Rcpt: craig.healy@chowda.com
X-UIDL: 1203048069.5769

SB KEPS @ AMSAT  $ORB08045.O
Orbital Elements  08045.OSCAR

HR AMSAT ORBITAL ELEMENTS FOR OSCAR SATELLITES
FROM WA5QGD FORT WORTH,TX February 14, 2008
Send Subscribe/unsubscribe to KEPS at 
http://www.amsat.org/mailman/listinfo/keps
BID: ORB08045.O
TO ALL RADIO AMATEURS BT

Satellite: AO-07
Catalog number: 07530
Epoch time:      08044.71573374
Element set:    0104
Inclination:      101.4839 deg
RA of node:       080.3065 deg
Eccentricity:    0.0012074
Arg of perigee:   144.7709 deg
Mean anomaly:     215.4160 deg
Mean motion:   12.53573488 rev/day
Decay rate:       -2.7e-07 rev/day^2
Epoch rev:           52138
Checksum:              279

Satellite: AO-10
Catalog number: 14129
Epoch time:      08040.55461412
Element set:     469
Inclination:      025.9289 deg
RA of node:       231.2610 deg
Eccentricity:    0.6031464
Arg of perigee:   097.3310 deg
Mean anomaly:     330.6746 deg
Mean motion:   02.05872724 rev/day
Decay rate:      -1.98e-06 rev/day^2
Epoch rev:           18545
Checksum:              292

Satellite: UO-11
Catalog number: 14781
Epoch time:      08044.89054173
Element set:    0596
Inclination:      098.1697 deg
RA of node:       076.9718 deg
Eccentricity:    0.0010026
Arg of perigee:   111.7106 deg
Mean anomaly:     248.5111 deg
Mean motion:   14.79616544 rev/day
Decay rate:       -6.4e-07 rev/day^2
Epoch rev:           28547
Checksum:              317

Satellite: RS-15
Catalog number: 23439
Epoch time:      08044.93397273
Element set:    0112
Inclination:      064.8225 deg
RA of node:       335.9774 deg
Eccentricity:    0.0150974
Arg of perigee:   146.4164 deg
Mean anomaly:     214.6440 deg
Mean motion:   11.27551375 rev/day
Decay rate:       -3.9e-07 rev/day^2
Epoch rev:           54095
Checksum:              312

Satellite: FO-29
Catalog number: 24278
Epoch time:      08044.95554304
Element set:    0715
Inclination:      098.5838 deg
RA of node:       337.5091 deg
Eccentricity:    0.0350692
Arg of perigee:   177.0031 deg
Mean anomaly:     183.3324 deg
Mean motion:   13.52934875 rev/day
Decay rate:        1.5e-07 rev/day^2
Epoch rev:           56759
Checksum:              331

Satellite: SO-33
Catalog number: 25509
Epoch time:      08044.77046327
Element set:     131
Inclination:      031.4315 deg
RA of node:       299.8312 deg
Eccentricity:    0.0354453
Arg of perigee:   019.3584 deg
Mean anomaly:     342.0099 deg
Mean motion:   14.28196166 rev/day
Decay rate:       4.37e-06 rev/day^2
Epoch rev:           48581
Checksum:              310

Satellite: AO-40
Catalog number: 26609
Epoch time:      08045.39705915
Element set:       8
Inclination:      007.4019 deg
RA of node:       097.5622 deg
Eccentricity:    0.7925140
Arg of perigee:   051.7766 deg
Mean anomaly:     355.9138 deg
Mean motion:   01.25582521 rev/day
Decay rate:      -4.20e-06 rev/day^2
Epoch rev:            3348
Checksum:              303

Satellite: VO-52
Catalog number: 28650
Epoch time:      08044.85731822
Element set:    0857
Inclination:      097.8032 deg
RA of node:       114.8061 deg
Eccentricity:    0.0027135
Arg of perigee:   183.8968 deg
Mean anomaly:     176.1984 deg
Mean motion:   14.81419969 rev/day
Decay rate:      .00000000 rev/day^2
Epoch rev:           15019
Checksum:              318

Satellite: PO-63
Catalog number: 29712
Epoch time:      08045.77923746
Element set:     186
Inclination:      097.8911 deg
RA of node:       106.2110 deg
Eccentricity:    0.0015265
Arg of perigee:   064.1791 deg
Mean anomaly:     296.0978 deg
Mean motion:   14.80021710 rev/day
Decay rate:       5.23e-06 rev/day^2
Epoch rev:            5921
Checksum:              302

/EX
SB KEPS @ AMSAT  $ORB08045.D
Orbital Elements  08045.MICROS

HR AMSAT ORBITAL ELEMENTS FOR THE MICROSATS
FROM WA5QGD FORT WORTH,TX February 14, 2008
Send Subscribe/unsubscribe to KEPS at 
http://www.amsat.org/mailman/listinfo/keps
BID: ORB08045.D
TO ALL RADIO AMATEURS BT

Satellite: AO-16
Catalog number: 20439
Epoch time:      08045.51769315
Element set:     251
Inclination:      098.2186 deg
RA of node:       031.9774 deg
Eccentricity:    0.0010513
Arg of perigee:   180.6082 deg
Mean anomaly:     179.5093 deg
Mean motion:   14.31784087 rev/day
Decay rate:       -5.0e-08 rev/day^2
Epoch rev:           94322
Checksum:              302

Satellite: LO-19
Catalog number: 20442
Epoch time:      08044.88683185
Element set:    0176
Inclination:      098.1948 deg
RA of node:       040.2657 deg
Eccentricity:    0.0011866
Arg of perigee:   180.4102 deg
Mean anomaly:     179.7063 deg
Mean motion:   14.32022950 rev/day
Decay rate:       -2.3e-07 rev/day^2
Epoch rev:           94328
Checksum:              304

Satellite: AO-27
Catalog number: 22825
Epoch time:      08045.70724964
Element set:     898
Inclination:      098.3679 deg
RA of node:       010.4642 deg
Eccentricity:    0.0007584
Arg of perigee:   267.0748 deg
Mean anomaly:     092.9580 deg
Mean motion:   14.29231081 rev/day
Decay rate:       1.75e-06 rev/day^2
Epoch rev:           75013
Checksum:              329

Satellite: IO-26
Catalog number: 22826
Epoch time:      08045.57272901
Element set:     600
Inclination:      098.3603 deg
RA of node:       011.3010 deg
Eccentricity:    0.0008096
Arg of perigee:   263.9588 deg
Mean anomaly:     096.0681 deg
Mean motion:   14.29477856 rev/day
Decay rate:       -1.8e-07 rev/day^2
Epoch rev:           75020
Checksum:              301

